Location: Unspecified
(0.0000°N, 0.0000°E)
Time: 15:00:47
(UTC+00:00)

A-11 Canister half - Pass Details

Date: 26 May 2026
Orbit: 1524 x 1684 km, 47.3° (Epoch: 7 June)

Event Time Altitude Azimuth Distance (km) Brightness Sun altitude
Rises 22:08:56 0° 328° (NNW) 4,863 12.1 -56.1°
Reaches altitude 10° 22:12:06 10° 331° (NNW) 3,894 11.4 -56.7°
Enters shadow 22:14:53 22° 336° (NNW) 3,083 10.8 -57.2°
Maximum altitude 22:22:00 64° 51° (NE) 1,830 - -58.5°
Drops below altitude 10° 22:32:01 10° 130° (SE) 3,943 - -60.3°
Sets 22:35:13 0° 133° (SE) 4,927 - -60.8°
